Regional Weather Roundup
Issued by NWS

Home | Current Version | Previous Version | Text Only | Print | Product List | Glossary Off
Versions: 1 2 3 4 5 6 7 8 9 10 11 12 13 14 15 16 17 18 19 20 21 22 23 24 25 26 27 28 29 30 31 32 33 34 35 36 37 38 39 40 41 42 43 44 45 46 47 48 49 50

000
ASUS43 KTOP 082208
RWRKS

WEATHER ROUNDUP FOR KANSAS
NATIONAL WEATHER SERVICE GOODLAND KS
400 PM CST THU DEC 08 2016

NOTE:  "FAIR" INDICATES FEW OR NO CLOUDS BELOW 12,000 FEET WITH NO
SIGNIFICANT WEATHER AND/OR OBSTRUCTIONS TO VISIBILITY.

KSZ001>006-013>018-027>032-041>047-082300-
NORTHWEST KANSAS

CITY           SKY/WX    TMP DP  RH WIND       PRES   REMARKS
GOODLAND       SUNNY     17   4  56 CALM      30.49S
HAYS           SUNNY     24   5  44 N9        30.62R
HILL CITY      SUNNY     23   3  42 N10       30.61S WCI  12
RUSSELL        SUNNY     24   6  46 N10       30.61S WCI  14
$$

KSZ061>065-074>080-084>089-082300-
SOUTHWEST KANSAS

CITY           SKY/WX    TMP DP  RH WIND       PRES   REMARKS
DODGE CITY     SUNNY     23   5  46 N9        30.59S
ELKHART          N/A     23  -2  33 SE7         N/A
GARDEN CITY    SUNNY     22   3  44 E6        30.56S
GREAT BEND     SUNNY     25   7  46 N10       30.63R WCI  15
LIBERAL        CLOUDY    25   1  36 CALM      30.56S
PRATT          SUNNY     25   0  33 N10       30.61S WCI  15
$$

KSZ066>073-081>083-090>101-082300-
SOUTHEAST KANSAS

CITY           SKY/WX    TMP DP  RH WIND       PRES   REMARKS
CHANUTE        CLEAR     28  13  53 NW12      30.63S WCI  18
COFFEYVILLE    CLEAR     31  12  45 NW8       30.65S
HUTCHINSON     SUNNY     28   6  39 N12       30.64R WCI  18
MEDICINE LODGE   N/A     29   2  31 N12       30.63F WCI  19
NEWTON         SUNNY     25  11  55 N9        30.64R
PARSONS        CLEAR     30  12  47 NW9       30.65R
WICHITA INTL   MOSUNNY   29   6  38 N12       30.64R WCI  19
WICHITA JABRA  SUNNY     27   8  44 NW10      30.64R WCI  17
WICHITA MCCONL SUNNY     28   6  39 N9        30.64R
WINFIELD       SUNNY     30   6  36 NW9       30.66R
$$

KSZ007>012-019>026-033>040-048>060-102>105-082300-
NORTHEAST KANSAS

CITY           SKY/WX    TMP DP  RH WIND       PRES   REMARKS
CONCORDIA      CLEAR     26   9  48 NW14      30.63S WCI  14
EMPORIA        CLEAR     26  11  52 NW12      30.62S WCI  16
LAWRENCE       CLEAR     26  12  55 W13       30.64R WCI  15
MANHATTAN      CLEAR     28  10  46 VRB5      30.65S
MARYSVILLE     CLEAR     27  10  50 NW14      30.63R WCI  15
OLATHE IND     PTCLDY    25  11  55 W13       30.61S WCI  14
OLATHE EXE     CLEAR     25  10  53 NW13      30.60R WCI  14
SALINA         SUNNY     26   9  48 N12       30.67R WCI  16
TOPEKA BILLARD CLEAR     27  11  51 NW14      30.64R WCI  16
TOPEKA FORBES  CLEAR     27  11  51 NW17      30.62S WCI  14
$$




USA.gov is the U.S. government's official web portal to all federal, state and local government web resources and services.